[Iaude] MPEC J177: 2017 FT232 [a=45.27,e=0.16,i=14.1,H=8.62]

mpec at cfa.harvard.edu mpec at cfa.harvard.edu
Wed May 8 13:21:47 EDT 2024


M.P.E.C. 2024-J177                                  Issued 2024 May 8, 17:20 UT

     The Minor Planet Electronic Circulars contain information on unusual
         minor planets, routine data on comets and natural satellites,
         and occasional editorial announcements.  They are published
    on behalf of Division F of the International Astronomical Union by the
          Minor Planet Center, Smithsonian Astrophysical Observatory,
                          Cambridge, MA 02138, U.S.A.
			  
             Prepared using the Tamkin Foundation Computer Network

                              MPC at CFA.HARVARD.EDU
            URL https://www.minorplanetcenter.net/    ISSN 1523-6714

                                   2017 FT232                                   


Additional Observations:
     K17FN2T 1C2014 11 18.54117010 00 11.76 +02 20 35.4                WEJ177T09
     K17FN2T 1C2014 11 18.58521010 00 11.80 +02 20 34.3                WEJ177T09
     K17FN2T 4C2018 01 17.45784 10 15 36.12 -00 21 33.5          24.5 i1EJ177T09
     K17FN2T 4C2018 01 17.47798 10 15 36.03 -00 21 33.5          24.8 i1EJ177T09
     K17FN2T 4C2018 01 17.48868 10 15 35.99 -00 21 33.5          24.9 i1EJ177T09
     K17FN2T 4C2018 01 17.54265 10 15 35.77 -00 21 33.0          24.9 i1EJ177T09
     K17FN2T 4C2018 01 17.56953 10 15 35.66 -00 21 32.7          25.2 i1EJ177T09

Observer details:
T09 Subaru Telescope, Maunakea.  Observers , H. Aihara, Y. AlSayyad, M. Ando,
    R. Armstrong, J. Bosch, E. Egami, H. Furusawa, J. Furusawa, S. Harasawa,
    Y. Harikane, B.-C. Hsieh, H. Ikeda, K. Ito, I. Iwata, T. Kodama, M. Koike,
    M. Kokubo, Y. Komiyama, X. Li, Y. Liang, Y.-T. Lin, R. H. Lupton, N. B.
    Lust, L. A. MacArthur, K. Mawatari, S. Mineo, H. Miyatake, S. Miyazaki, S.
    More, T. Morishima, H. Murayama, K. Nakajima, F. Nakata, A. J. Nishizawa,
    M. Oguri, N. Okabe, Y. Okura, Y. Ono, K. Osato, M. Ouchi, Y.-C. Pan, A. A.
    Plazas Malagon, P. A. Price, S. L. Reed, E. S. Rykoff, T. Shibuya, M.
    Simunovic, M. A. Strauss, K. Sugimori, Y. Suto, N. Suzuki, M. Takada, Y.
    Takagi, T. Takata, S. Takita, M. Tanaka, S. Tang, D. S. Taranu, T. Terai,
    Y. Toba, E. L. Turner, H. Uchiyama, B. Vijarnwannaluk, C. Z. Waters, Y.
    Yamada, N. Yamamoto, T. Yamashita.  Measurers S. Deen, A. Yamauchi.  8.3-m
    Subaru Telescope + CCD, 8.2-m f/2.0 reflector + CCD(HSC).

Orbital elements:
2017 FT232                                                                      
Epoch 2024 Mar. 31.0 TT = JDT 2460400.5                 Alexandersen            
M 355.68584              (2000.0)            P               Q                  
n   0.00323539     Peri.  242.85479     -0.96522160     -0.12353060             
a  45.2743231      Node   289.29643     +0.21986316     -0.86039753             
e   0.1618131      Incl.   14.12992     -0.14144771     -0.49442521             
P 305              H    8.62          G   0.15           U   5                  
Residuals in seconds of arc
141118 T09  0.0   0.0     170128 T09  0.1+  0.0     170322 T09  0.0   0.1-
141118 T09  0.0   0.0     170202 T09  0.1-  0.2-    170322 T09  0.0   0.2-
170128 T09  0.0   0.0     170202 T09  0.0   0.1-    180117 T09  0.1+  0.2+
170128 T09  0.1+  0.0     170202 T09  0.0   0.1+    180117 T09  0.0   0.0
170128 T09  0.1-  0.1+    170202 T09  0.0   0.0     180117 T09  0.0   0.1-
170128 T09  0.0   0.1+    170202 T09  0.0   0.0     180117 T09  0.0   0.0
170128 T09  0.1-  0.0     170322 T09  0.1+  0.1+    180117 T09  0.0   0.1+
170128 T09  0.1-  0.0     170322 T09  0.0   0.1+

Ephemeris:
2017 FT232               a,e,i = 45.27, 0.16, 14                 q = 37.9483
Date    TT    R. A. (2000) Decl.     Delta      r    Elong.  Phase     V
2024 04 08    10 44 12.4 -05 00 48  37.1599 37.9775   144.3     0.9    24.5
...
2024 04 23    10 43 24.9 -04 53 03  37.3210 37.9769   130.1     1.2    24.5
...
2024 05 01    10 43 07.0 -04 49 18  37.4252 37.9765   122.5     1.3    24.6
...
2024 05 07    10 42 57.2 -04 46 44  37.5102 37.9763   116.8     1.4    24.6
2024 05 08    10 42 55.9 -04 46 20  37.5248 37.9762   115.9     1.4    24.6
2024 05 09    10 42 54.7 -04 45 56  37.5396 37.9762   114.9     1.4    24.6
...
2024 05 15    10 42 49.4 -04 43 43  37.6306 37.9759   109.3     1.4    24.6
...
2024 05 23    10 42 47.7 -04 41 13  37.7572 37.9756   101.7     1.5    24.6
...
2024 06 07    10 43 01.1 -04 38 08  38.0027 37.9750    87.7     1.5    24.6

M. P. C. Staff               (C) Copyright 2024 MPC           M.P.E.C. 2024-J177





More information about the Iaude mailing list